Location: Hamilton
(37.7830°S, 175.2830°E)
Time: 18:35:37
(UTC+13:00)

Cosmos 292 Rocket - Pass Details

Date: 24 January 2019
Orbit: 673 x 695 km, 74.0° (Epoch: 20 February)

Event Time Altitude Azimuth Distance (km) Brightness Sun altitude
Rises 21:36:45 0° 202° (SSW) 3,061 8.2 -10.8°
Reaches altitude 10° 21:39:05 10° 205° (SSW) 2,140 7.3 -11.2°
Maximum altitude 21:43:51 63° 285° (WNW) 765 4.2 -12.0°
Drops below altitude 10° 21:48:34 10° 5° (N) 2,121 5.9 -12.7°
Enters shadow 21:49:06 - 6° (N) 2,330 6.1 -12.8°
